Regional Weather Roundup
Issued by NWS

Home | Current Version | Previous Version | Graphics & Text | Print | Product List | Glossary On
Versions: 1 2 3 4 5 6 7 8 9 10 11 12 13 14 15 16 17 18 19 20 21 22 23 24 25 26 27 28 29 30 31 32 33 34 35 36 37 38 39 40 41 42 43 44 45 46 47 48 49 50
507
ASUS43 KFSD 270910
RWRSD

WEATHER ROUNDUP FOR SOUTH DAKOTA
NATIONAL WEATHER SERVICE SIOUX FALLS SD
400 AM CDT THU JUL 27 2017

NOTE: "FAIR" INDICATES FEW OR NO CLOUDS BELOW 12,000 FEET WITH NO
SIGNIFICANT WEATHER AND/OR OBSTRUCTIONS TO VISIBILITY.


SDZ001>005-009-010-012>017-271000-
NORTHWEST AND NORTH CENTRAL SOUTH DAKOTA

CITY           SKY/WX    TMP DP  RH WIND       PRES   REMARKS
BUFFALO          N/A     67  52  58 S12       30.06S
FAITH            N/A     62  53  72 S13       30.13S
MOBRIDGE       CLEAR     64  58  80 SE8       30.11F
$$

SDZ012>016-024>037-041>051-057-063-072>074-271000-
SOUTHWEST AND SOUTH CENTRAL SOUTH DAKOTA

CITY           SKY/WX    TMP DP  RH WIND       PRES   REMARKS
RAPID CTY ARPT CLOUDY    68  54  60 S6        30.16F
PIERRE         CLEAR     60  54  80 NE6       30.12S
CUSTER         CLOUDY    63  54  72 SE7       30.29F
ELLSWORTH AFB  CLOUDY    69  55  60 S10       30.16F
PHILIP         MOCLDY    69  56  62 CALM      30.13F
PINE RIDGE     CLOUDY    71  61  70 NE3       30.18F
SPEARFISH      FAIR      72  54  53 SW6G15    30.16F
WINNER         FAIR      64  58  80 S5        30.14S
$$

SDZ004>011-016>023-039-040-271000-
NORTHEAST SOUTH DAKOTA

CITY           SKY/WX    TMP DP  RH WIND       PRES   REMARKS
ABERDEEN       CLEAR     59  57  93 CALM      30.12F
WATERTOWN      CLEAR     59  57  93 CALM      30.13R
BROOKINGS      CLEAR     61  60  97 CALM      30.12F
SISSETON         N/A     60  58  92 W5        30.11S
$$

SDZ017-020-022-023-036>040-048>070-271000-
SOUTHEAST SOUTH DAKOTA

CITY           SKY/WX    TMP DP  RH WIND       PRES   REMARKS
SIOUX FALLS    CLEAR     61  61 100 N3        30.10S
HURON          CLEAR     62  60  93 CALM      30.11S
CHAMBERLAIN    CLEAR     63  62  96 CALM      30.13F
MITCHELL       CLEAR     62  61  96 CALM      30.11F
YANKTON        CLEAR     63  60  90 N8        30.09F
$$

ABBREVIATIONS USED IN REMARKS
   TC - TEMPERATURE IN CELSIUS
  WCI - WIND CHILL INDEX
   HX - HEAT INDEX
  VSB - VISIBILITY





USA.gov is the U.S. government's official web portal to all federal, state and local government web resources and services.